Погода в Кургане

Погода в Кургане : погода сейчас, прогноз погоды и архив. Всё, что Вы хотите узнать о погоде в Кургане!

Хотите узнать прогноз погоды в Кургане? Тогда Вам сюда: Погода в Кургане

Поиск расширенной информации на нашем сайте:

Другие новости

Новости СМИ2

Главная страница сайта

Новости сайта

02.10.2013

Напоминаем, что на нашем новом сайте вы можете получить высокодетализированные прогнозы погоды по пунктам России, СНГ и мира (включающие важные для авиации метеовеличины, такие как направление и скорость ветра, видимость, явления погоды, количество и форма облачности, нижняя и верхняя граница облачности), а также ознакомиться с разнообразными материалами по авиационной метеорологии и подборкой полезных ссылок на эту тему.

Сайт Метеоцентр.Азия посвящён разработке технологий оптимизации авиаметеорологического обслуживания, включая проектирование и перспективное создание нескольких автоматизированных авиаметеорологических систем:
- система выпуска высокодетальных прогностических карт явлений погоды для нижнего воздушного пространства по России и ближнему зарубежью;
- система верификации прогнозов TAF (выпускаемых синоптиками официальных АМСГ РФ и ближнего зарубежья) и AUTOTAF (выпускаемых сайтом Метеоцентр.Азия) - выявление ошибок, онлайн-сопоставление с фактической погодой METAR, автоматическое внесение коррективов в прогнозы при резком отклонении фактической погоды от прогноза, подсчёт оправдываемости прогнозов по элементам и в целом;
- система обработки, анализа и отображения авиаметеорологической информации для применения провайдерами метеорологической информации.

Рекомендуем: Где провести корпоративное мероприятие в Санкт-Петербурге spb.go2all.ru.

Погода в Кургане - сегодня

Время (UTC), дата Ветер
(°,м/с) 
Видим.   Явления Облачность Т
(°С)
Тd
(°С)
f(%) Тe
(°С)
Pmin
(гПа)
dP
(гПа)
Po
(мм)
O2
(г/м3)
Тmin Tmax R s Состояние
почвы
21 28.07.14 320 (СЗ) 10 км    10/0 средняя, верхняя 
[Ac trans|Ci fib]
+11.9 +9.7 86 +12  1008.7  0.5  750  288           
00 29.07.14 300 (СЗ) 10 км  слаб. ливневой дождь  10/6 1000 м кучево-дожд., средняя 
[Cb cap|Ac und]
+11.1 +9.7 91 +12  1010  1.2  751  289           
03 29.07.14 310 (СЗ) 20000 м  {ливн. осадки}  10/6 300 м кучево-дожд., средняя 
[Cb cap|Ac und]
+12.1 +10.6 91 +14  1010.8  0.9  752  288  +11.1      влажная 
06 29.07.14 310 (СЗ) 20000 м  в посл. час ливневой дождь  10/6 300 м кучево-дожд., средняя 
[Cb cap|Ac trans]
+13.9 +10.9 82 +15  1011.6  0.8  752  286           
09 29.07.14 320 (СЗ) 20000 м  {ливн. осадки}  8/5 1000 м кучево-дожд., средняя 
[Cb cap|Ac trans]
+15.8 +8.8 63 +16  1012  0.4  752  285           
12 29.07.14 320 (СЗ) 5{10}  20000 м  {ливн. осадки}  8/4 1000 м кучево-дожд., средняя 
[Cb cap|Ac trans]
+15.7 +8.2 61 +15  1012.6  0.6  753  285           
15 29.07.14 320 (СЗ) 20000 м    8/4 1000 м кучево-дожд., средняя 
[Cb cap|Ac trans]
+14.3 +9.2 71 +14  1013.7  1.1  754  287    +17.3  0.8     
18 29.07.14 270 (З) 10 км    6/3 1000 м кучево-дожд., средняя 
[Cb cap|Ac trans]
+11.3 +9.3 87 +12  1014.6  0.7  754  290           
21 29.07.14 170 (Ю) 10 км    6/0 средняя 
[Ac trans]
+10.6 +9.6 94 +12  1015.3  0.7  755  291           
00 30.07.14 170 (Ю) 20000 м    6/0 средняя 
[Ac trans]
+9.5 +8.7 95 +10  1015.4  0.1  755  292           
03 30.07.14 190 (Ю) 20000 м    8/0 верхняя 
[Ci fib]
+12.6 +9.7 82 +13  1015.5  0.1  755  289  +9.3        влажная 
06 30.07.14 220 (ЮЗ) 20000 м    8/5 1000 м верхняя 
[Cu med, cong|Ci fib]
+19.4 +11.4 60 +23  1014.6  -0.6  754  282           
09 30.07.14 240 (ЮЗ) 20000 м    10/8 1000 м кучево-дожд., верхняя 
[Cb cap|Ci fib]
+22 +11.2 50 +25  1013.8  -0.8  754  279           
12 30.07.14 210 (ЮЗ) 20000 м    10/8 1000 м кучево-дожд., средняя, верхняя 
[Cb cap|As trans|Ci fib]
+21.3   1012.6  -1.1  753             
15 30.07.14 230 (ЮЗ) 20000 м    10/6 1000 м кучево-дожд., верхняя 
[Cb cap|Ci fib]
+20.9 +13 61 +26  1012.3  -0.3  753  279    +23.1       
18 30.07.14 190 (Ю) 10 км    10/3 1000 м средняя, верхняя 
[Ac trans|Ci fib]
+16.3 +13.5 84 +23  1012.5  0.1  753  284           
21 30.07.14 170 (Ю) 10 км    8/3 1000 м средняя, верхняя 
[Ac trans|Ci fib]
+13.6 +12.1 91 +18  1011.9  -0.6  752  286           
00 31.07.14 190 (Ю) 10 км    10/4 1000 м средняя, верхняя 
[Ac trans|Ci fib]
+14.1 +12.8 92 +20  1011.5  -0.5  752  286           
03 31.07.14 180 (Ю) 10 км    10/3 1000 м кучево-дожд., средняя, верхняя 
[Cb cap|Ac trans|Ci fib]
+16.5 +12.9 79 +22  1011.4  -0.1  752  283  +13.6        влажная 
06 31.07.14 170 (Ю) 10 км  слаб. ливневой дождь  10/5 1000 м кучево-дожд., средняя, верхняя 
[Cb cap|Ac trans|Ci fib]
+16.9 +14.8 87 +25  1011.1  -0.4  752  282           
09 31.07.14 210 (ЮЗ) 20000 м  слаб. ливневой дождь  10/5 1000 м кучево-дожд., средняя 
[Cb cap|Ac und]
+20 +14.3 70 +27  1011.1  0.2  752  279           
12 31.07.14 170 (Ю) 20000 м  {ливн. осадки}  10/5 1000 м кучево-дожд., средняя 
[Cb cap|Ac und]
+20.5 +16 75 +31  1010.9  -0.2  752  278           
15 31.07.14 160 (Ю) 10 км    10/5 1000 м кучево-дожд., средняя 
[Cb cap|Ac und]
+20.4 +16.8 80 +32  1010.8  -0.1  752  278    +20.8  0.8     
18 31.07.14 170 (Ю) 10 км    10/3 1000 м кучево-дожд., средняя 
[Cb cap|Ac und]
+18.3 +16.3 88 +30  1010.9  0.1  752  280           
21 31.07.14 160 (Ю) 10 км  {ливн. осадки}  10/3 1000 м кучево-дожд., средняя 
[Cb cap|Ac und]
+17.8 +16.1 90 +30  1011.1  0.2  752  281           
Время (UTC), дата Ветер
(°,м/с) 
Видим.   Явления Облачность Т
(°С)
Тd
(°С)
f(%) Тe
(°С)
Pmin
(гПа)
dP
(гПа)
Po
(мм)
O2
(г/м3)
Тmin Tmax R s Состояние
почвы

Для получения пояснительной информации подведите курсор к названию столбца.

ПОГОДА в Кургане - архив

Всё, что Вы хотите узнать о погоде в Кургане - удобно и подробно!

Выберите нужную дату (начиная с 1 января 2013* года) и нажмите кнопку "Найти".
Будут отображены архивные сводки погоды по пункту Курган, начиная с указанной даты.


Отображать данные в формате CSV (для использования в таблицах Excel)


Внимание! Наш архив погоды предназначен исключительно для личного некоммерческого использования в познавательных целях. Если Вам необходимы официальные справки о состоянии погоды (для производственных, юридических, коммерческих и т.п. целей), обращайтесь в органы Росгидромета.

*Примечание: данная дата относится к архиву по метеостанциям СССР (Россия, СНГ, Балтия).
Архив по метеостанциям Зарубежной Европы и Азии (кроме Китая) хранится 10 дней, по другим регионам земного шара (Китай, Африка, Америка, Австралия, Океания) - 1 день.

Курган - район местоположения метеостанции


Название, широта, долгота, высота метеостанции:
Курган 55.5°ш. 65.4°д. 74 м над ур. моря [Российская Федерация]

Дополнительная информация

В oтличие oт бoльшинства пoгoдных сайтoв мы публикуем пoдрoбную метеoинфoрмацию в детальнoм прoфессиoнальнoм фoрмате.

Характеристики температуры и влажнoсти вoздуха измеряются на высoте 2 м в тени вдали oт зданий и деревьев.
Скoрoсть ветра измеряется на высoте 10 м (на урoвне рoста челoвека скoрoсть ветра ниже в 1.5-2 раза). Если метеoстанция нахoдится в гoрoде или в лесу, тo скoрoсть ветра занижена на 2-4 м/с пo сравнению с oткрытым местoм. Скoрoсть ветра над акватoриями крупных рек и oзёр, а также на вершинах хoлмoв на 2-5 м/с выше, чем в oбычных услoвиях.
Атмoсфернoе давление в разных тoчках местнoсти мoжет значительнo oтличаться oт давления на метеoстанции, в зависимoсти oт услoвий рельефа (при пoдъёме на 10 м давление пoнижается примернo на 1 мм рт.ст.).